[[{"header":{"parameterUnit":"m.s-1","parameterCategory":1,"la1":30.2991,"la2":30.254,"lo1":-89.0895,"lo2":-89.0444,"dy":0.0017,"dx":0.0017,"nx":28,"ny":28,"refTime":"2023-10-14T03:00:00:Z","depth":0,"parameterNumber":2,"parameterNumberName":"U-component_of_WINDS"},"data":[0,0,0,0,0,0,0,0,0,0,0,0,0,0,0,0,0,0,0,0,0,0,0,0,0,0,0,0,0,0,0,0,0,0,0,0,0,0,0,0,0,0,0,0,0,0,0,0,0,0,0,0,0,0,0,0,0,0,2.444,2.4439,0,2.439,2.4389,2.4389,2.4318,2.4317,2.4316,2.4315,2.4261,2.426,2.426,0,0,0,0,0,0,0,0,0,0,0,0,0,2.4474,2.4474,2.444,2.4439,2.4439,2.439,2.4389,2.4389,2.4318,2.4317,2.4316,2.4314,2.4261,2.426,2.426,0,0,0,0,0,0,0,0,0,0,0,0,0,2.4445,2.4474,2.444,2.4398,2.4394,2.439,2.4389,2.4388,2.4319,2.4317,2.4315,2.4314,2.4261,2.426,2.426,2.4293,0,0,2.4258,2.4258,0,0,0,0,0,0,0,0,2.4447,2.4444,2.4405,2.4401,2.4396,2.4359,2.4381,2.4356,2.4319,2.4347,2.4315,2.4313,2.4294,2.4291,2.4285,2.429,2.4288,2.4258,2.4258,2.4258,2.4258,0,0,0,0,0,0,0,2.4449,2.4446,2.442,2.4404,2.4399,2.4381,2.4375,2.4376,2.4331,2.4345,2.4339,2.4335,2.4292,2.4286,2.4284,2.4287,2.4258,2.4258,2.4258,2.4257,2.4317,2.4319,0,0,0,0,0,0,2.4457,2.4448,2.4422,2.4419,2.4418,2.4382,2.4375,2.4372,2.4331,2.4323,2.4336,2.4331,2.4288,2.4284,2.4282,2.4317,2.4258,2.4257,2.4257,2.4315,2.4317,2.4319,0,0,0,0,0,0,2.4458,2.4456,2.4424,2.4432,2.4426,2.4383,2.4381,2.4372,2.4367,2.4325,2.4316,2.4339,2.4286,2.4282,2.4291,2.4314,2.4257,2.4257,2.4313,2.4316,2.4318,2.4388,0,0,0,0,0,0,2.446,2.4456,2.4468,2.4433,2.4426,2.4434,2.4382,2.4373,2.4366,2.436,2.4325,2.4317,2.4285,2.4292,2.429,2.4312,2.4256,2.431,2.4314,2.4317,2.4383,2.4393,2.4401,0,0,0,0,0,2.4461,2.4489,2.4469,2.4467,2.444,2.4436,2.4432,2.4394,2.4369,2.438,2.4354,2.4319,2.4313,2.4293,2.4291,2.4313,2.4309,2.4313,2.4317,2.4379,2.4391,2.4401,0,0,0,0,0,0,2.4527,2.4484,2.4461,2.4479,2.4462,2.4424,2.4437,2.4408,2.4396,2.4391,2.4344,2.4337,2.4351,2.4333,2.4313,2.4343,2.4305,2.4309,2.4353,2.4364,2.4373,2.4375,2.4256,0,0,0,0,0,2.4545,2.4545,2.4506,2.4526,2.4518,2.448,2.4476,2.4449,2.4429,2.4421,2.4395,2.4376,2.437,2.4366,2.4358,2.4382,2.4373,2.4396,2.4405,2.4412,2.4415,2.4426,2.4435,2.4333,2.4333,2.4333,0,0,2.4579,2.4555,2.4557,2.4538,2.4522,2.4523,2.4474,2.4476,2.4476,2.4421,2.4427,2.4408,2.4384,2.44,2.4406,2.4386,2.4442,2.4418,2.4424,2.4422,2.4431,2.4441,2.445,2.4336,2.4335,2.4335,0,0,2.4641,2.4624,2.4638,2.4623,2.4599,2.4574,2.4578,2.4545,2.453,2.4537,2.4495,2.4495,2.4485,2.447,2.4461,2.4522,2.4489,2.4521,2.4565,2.4576,2.4584,2.4591,2.4611,2.4619,2.4524,2.4525,2.4525,0,2.4686,2.4686,2.4648,2.4654,2.4647,2.4599,2.4613,2.46,2.4575,2.4571,2.455,2.4538,2.4518,2.453,2.4545,2.454,2.4542,2.4522,2.4586,2.4593,2.4599,2.4617,2.4625,2.4528,2.4528,2.4528,2.4527,0,2.4742,2.4743,2.4757,2.4735,2.473,2.474,2.4704,2.4703,2.4678,2.4655,2.4662,2.4638,2.4624,2.4626,2.4601,2.4635,2.4623,2.4595,2.4555,2.4613,2.463,2.4637,2.4534,2.4533,2.4531,2.453,0,0,2.484,2.48,2.4806,2.4795,2.4768,2.4767,2.4776,2.4764,2.4764,2.475,2.4754,2.4749,2.4724,2.4714,2.4687,2.4697,2.4746,2.4668,2.4666,2.4681,2.4781,2.48,2.4809,2.4726,2.4727,2.4728,2.4782,0,2.4895,2.4907,2.4875,2.4894,2.4894,2.4851,2.4858,2.4842,2.4822,2.4819,2.4797,2.4793,2.4761,2.4754,2.4763,2.4738,2.4765,2.4734,2.4728,2.4728,2.4732,2.4818,2.4838,2.489,2.4789,2.479,2.4791,0,2.4959,2.495,2.4969,2.4942,2.4941,2.4948,2.4935,2.4934,2.4915,2.4899,2.489,2.486,2.4866,2.4831,2.4839,2.4819,2.4815,2.4803,2.4804,2.48,2.4761,2.4813,2.4906,2.4913,2.4801,2.48,2.4799,0,2.5027,2.5019,2.503,2.5023,2.4991,2.4997,2.4984,2.4964,2.496,2.4949,2.4946,2.4936,2.493,2.4923,2.4891,2.4869,2.4902,2.4864,2.4888,2.4889,2.4894,2.4893,2.4984,2.4897,2.4896,2.4896,2.4896,0,2.509,2.5103,2.506,2.5066,2.508,2.5044,2.5059,2.5042,2.5025,2.5027,2.499,2.4993,2.4952,2.495,2.4926,2.4935,2.4933,2.492,2.4913,2.4922,2.4923,2.4916,2.4911,2.4898,2.4898,2.4898,2.4897,0,2.5166,2.5138,2.5146,2.5117,2.511,2.5122,2.5096,2.5101,2.508,2.5083,2.5082,2.5049,2.5045,2.5014,2.5003,2.4986,2.5004,2.4992,2.5011,2.5005,2.503,2.5027,2.5117,2.5127,2.5036,2.5037,2.5038,0,2.5206,2.5215,2.5188,2.5187,2.5177,2.5176,2.5172,2.5138,2.5135,2.5116,2.5123,2.5117,2.511,2.5106,2.5081,2.5073,2.5057,2.509,2.5056,2.5065,2.5055,2.5054,2.5054,2.5096,2.5097,2.5098,2.5099,0,2.528,2.5266,2.5262,2.5254,2.525,2.5241,2.523,2.5232,2.5195,2.5194,2.519,2.5185,2.5176,2.517,2.5158,2.5144,2.5115,2.5111,2.5115,2.5123,2.5133,2.5126,2.5028,2.5108,2.5107,2.5106,2.5106,2.5105,2.5338,2.5344,2.5326,2.5323,2.5312,2.5303,2.5306,2.5287,2.5284,2.5273,2.5255,2.5254,2.5237,2.5218,2.5207,2.5206,2.5189,2.5196,2.5197,2.5199,2.5203,2.5136,2.5204,2.5204,2.5204,2.5203,2.5203,0,2.5408,2.5395,2.5393,2.538,2.5377,2.5354,2.5341,2.534,2.5341,2.5328,2.5322,2.5319,2.5314,2.529,2.5282,2.5286,2.5272,2.5284,2.5282,2.5279,2.522,2.5216,2.5295,2.5295,2.5295,2.5295,2.5295,2.5295,2.5444,2.5454,2.5438,2.5443,2.543,2.5429,2.5424,2.5416,2.5406,2.5404,2.54,2.5385,2.5368,2.5359,2.5353,2.5346,2.5344,2.536,2.5349,2.5293,2.5283,2.5275,2.5271,2.5361,2.5361,2.5408,2.5408,2.5409]},{"header":{"parameterUnit":"m.s-1","parameterCategory":1,"la1":30.2991,"la2":30.254,"lo1":-89.0895,"lo2":-89.0444,"dy":0.0017,"dx":0.0017,"nx":28,"ny":28,"refTime":"2023-10-14T03:00:00:Z","depth":0,"parameterNumber":3,"parameterNumberName":"V-component_of_WINDS"},"data":[0,0,0,0,0,0,0,0,0,0,0,0,0,0,0,0,0,0,0,0,0,0,0,0,0,0,0,0,0,0,0,0,0,0,0,0,0,0,0,0,0,0,0,0,0,0,0,0,0,0,0,0,0,0,0,0,0,0,1.0446,1.0445,0,1.0334,1.0333,1.0331,1.0278,1.0278,1.0278,1.0278,1.0155,1.0151,1.0148,0,0,0,0,0,0,0,0,0,0,0,0,0,1.0606,1.0603,1.0447,1.0445,1.0444,1.0334,1.0333,1.0331,1.0278,1.0278,1.0278,1.0278,1.0156,1.0152,1.0148,0,0,0,0,0,0,0,0,0,0,0,0,0,1.0519,1.0603,1.0447,1.0404,1.0399,1.0334,1.0333,1.0331,1.0278,1.0278,1.0278,1.0278,1.0157,1.0152,1.0147,1.0114,0,0,1.0132,1.013,0,0,0,0,0,0,0,0,1.0524,1.0513,1.0412,1.0407,1.0401,1.032,1.0344,1.0258,1.0278,1.0324,1.0278,1.0278,1.0209,1.02,1.0178,1.0108,1.0103,1.0131,1.0128,1.0126,1.0125,0,0,0,0,0,0,0,1.053,1.0518,1.0402,1.041,1.0404,1.0387,1.0375,1.0327,1.0267,1.032,1.0315,1.0303,1.0206,1.0183,1.0175,1.0101,1.0131,1.0127,1.0124,1.0122,0.9995,0.9995,0,0,0,0,0,0,1.0545,1.0523,1.0405,1.0398,1.0465,1.0385,1.0371,1.0346,1.0267,1.0255,1.0303,1.0301,1.0192,1.0181,1.017,1.0125,1.0126,1.0121,1.0119,0.9995,0.9995,0.9995,0,0,0,0,0,0,1.0548,1.0535,1.041,1.046,1.0443,1.0382,1.0354,1.0344,1.0321,1.0255,1.0243,1.0292,1.0191,1.0177,1.0128,1.012,1.0119,1.0115,0.9996,0.9995,0.9995,1.0034,0,0,0,0,0,0,1.0553,1.0536,1.0525,1.046,1.044,1.0373,1.0354,1.0341,1.0313,1.0309,1.0241,1.0229,1.019,1.0136,1.0123,1.0113,1.0111,0.9996,0.9996,0.9995,1.0033,1.0035,1.0037,0,0,0,0,0,1.0559,1.054,1.0525,1.0511,1.0426,1.0372,1.0361,1.0319,1.0313,1.03,1.0257,1.0232,1.0123,1.0132,1.0117,1.0104,0.9997,0.9996,0.9995,1.0033,1.0035,1.0037,0,0,0,0,0,0,1.0603,1.053,1.0513,1.0473,1.043,1.0364,1.0346,1.0322,1.0278,1.0276,1.0222,1.0207,1.0162,1.0128,1.0139,1.0067,1.0057,1.0053,1.0091,1.0092,1.0094,1.0102,1.0107,0,0,0,0,0,1.0608,1.0574,1.0511,1.0481,1.0461,1.0407,1.0382,1.0354,1.0305,1.0286,1.024,1.0192,1.0146,1.0117,1.0072,1.0028,1.0011,1.0012,1.0014,1.0015,1.0012,0.9984,0.9983,0.9992,0.9992,0.9992,0,0,1.0618,1.0574,1.0556,1.0489,1.0452,1.0415,1.0392,1.0354,1.0324,1.0279,1.0231,1.0195,1.0137,1.009,1.0067,1.006,1.0006,1.0014,1.0016,1.0012,0.9983,0.9982,0.9982,0.9991,0.9992,0.9992,0,0,1.0617,1.0582,1.0553,1.0516,1.0461,1.0426,1.0419,1.0356,1.0331,1.0282,1.0247,1.0209,1.0133,1.0093,1.0063,1.0045,1.0019,1.0031,1.0039,1.0012,1.0012,1.0011,1.0002,1.0,1.0029,1.0029,1.0029,0,1.0636,1.0581,1.054,1.0503,1.0474,1.0434,1.0401,1.0367,1.0299,1.0278,1.0272,1.0175,1.0133,1.0075,1.0071,1.0048,1.0036,1.0039,1.0016,1.0014,1.0013,1.0004,1.0001,1.0031,1.003,1.003,1.003,0,1.0606,1.0568,1.0551,1.0489,1.0457,1.0423,1.0373,1.0345,1.0319,1.0283,1.0232,1.018,1.0123,1.0107,1.008,1.0044,1.0042,1.0027,1.0016,1.0015,1.0005,1.0002,1.0033,1.0033,1.0032,1.0032,0,0,1.063,1.0545,1.0539,1.051,1.0446,1.0414,1.0377,1.0323,1.03,1.0253,1.0219,1.0155,1.014,1.0105,1.0073,1.005,1.0036,1.0037,1.0034,1.0037,0.9991,1.0002,0.9999,1.0019,1.0018,1.0018,0.9995,0,1.0619,1.0554,1.0515,1.0464,1.0427,1.0387,1.0354,1.0309,1.0274,1.0235,1.0194,1.015,1.0134,1.0113,1.0088,1.0044,1.0026,1.0045,0.9983,0.9982,0.9998,0.9995,1.0007,0.9988,0.9992,0.9991,0.9991,0,1.0598,1.0555,1.0502,1.0441,1.0423,1.0395,1.0342,1.0306,1.0253,1.0229,1.019,1.0158,1.0113,1.0106,1.0042,1.0056,1.0028,1.0002,1.0,0.9991,0.9986,0.9985,0.9982,0.9978,0.9985,0.9985,0.9986,0,1.0619,1.0548,1.0506,1.0482,1.041,1.0391,1.0359,1.0307,1.0276,1.0229,1.0208,1.0155,1.0125,1.0083,1.0036,1.0036,0.9975,0.9965,0.9951,0.9953,0.994,0.9941,0.9931,0.9924,0.9924,0.9924,0.9924,0,1.0611,1.0579,1.0515,1.0489,1.0451,1.0405,1.0367,1.0332,1.0285,1.0249,1.0211,1.0177,1.0118,1.0075,1.0038,0.9989,0.9976,0.9953,0.9943,0.9956,0.9958,0.9936,0.9935,0.9924,0.9924,0.9924,0.9924,0,1.0628,1.0584,1.0536,1.0472,1.0455,1.0429,1.0373,1.0344,1.0307,1.0262,1.0248,1.0189,1.0137,1.0086,1.0016,0.999,0.9941,0.9929,0.996,0.9955,0.9943,0.9944,0.9916,0.9909,0.991,0.991,0.991,0,1.0625,1.06,1.0534,1.0509,1.0479,1.0438,1.0407,1.0359,1.0328,1.0265,1.0243,1.019,1.0144,1.0062,1.0011,0.9956,0.9941,0.9935,0.9932,0.9945,0.9938,0.994,0.9936,0.9936,0.9936,0.9937,0.9937,0,1.0624,1.0604,1.0563,1.0514,1.0479,1.0437,1.0394,1.0374,1.0317,1.0283,1.0232,1.0196,1.0125,1.0071,1.001,0.9973,0.9944,0.9938,0.9932,0.9944,0.9962,0.995,0.9963,0.9939,0.9939,0.9938,0.9938,0.9938,1.063,1.0605,1.0555,1.051,1.0473,1.0433,1.0403,1.0362,1.0319,1.0259,1.0232,1.018,1.0124,1.004,1.0003,0.9959,0.9951,0.9942,0.994,0.9938,0.994,0.9971,0.9947,0.9947,0.9947,0.9947,0.9947,0,1.0626,1.0592,1.0551,1.0492,1.0456,1.0435,1.0385,1.0355,1.031,1.0262,1.0218,1.0157,1.0104,1.0048,0.999,0.9965,0.995,0.9951,0.9952,0.9943,0.9951,0.9962,0.9964,0.9964,0.9964,0.9964,0.9964,0.9964,1.062,1.0576,1.0549,1.0486,1.045,1.04,1.0373,1.0335,1.0296,1.0231,1.0188,1.0152,1.01,1.0038,0.9987,0.9971,0.9951,0.9956,0.9936,0.9944,0.9943,0.9942,0.9952,0.9952,0.9952,0.9932,0.9932,0.9932]}]]